Regional Weather Roundup
Issued by NWS Green Bay, WI

Home | Current Version | Previous Version | Graphics & Text | Print | Product List | Glossary Off
Versions: 1 2 3 4 5 6 7 8 9 10 11 12 13 14 15 16 17 18 19 20 21 22 23 24 25 26 27 28 29 30 31 32 33 34 35 36 37 38 39 40 41 42 43 44 45 46 47 48 49 50

000
ASUS43 KGRB 251559
RWRGRB

NORTH-CENTRAL AND NORTHEAST WISCONSIN REGIONAL WEATHER ROUNDUP
NATIONAL WEATHER SERVICE GREEN BAY WI
1100 AM CDT SAT APR 25 2015

WIZ005-009-010>012-018-019-251700-
NORTH CENTRAL WISCONSIN

CITY           SKY/WX    TMP DP  RH WIND       PRES   REMARKS
IRONWOOD       SUNNY     48  27  43 E6        29.92F
MANITOWISH WTR NOT AVBL
ARBOR VITAE    NOT AVBL
EAGLE RIVER    NOT AVBL
LAND O LAKES   NOT AVBL
RHINELANDER    CLOUDY    46  18  32 E10       29.94S
PHILLIPS       SUNNY     49  20  32 E9        29.91F
ANTIGO         NOT AVBL
TOMAHAWK       NOT AVBL
MERRILL        NOT AVBL
$$

WIZ013-073-251700-
NORTHEAST WISCONSIN

CITY           SKY/WX    TMP DP  RH WIND       PRES   REMARKS
IRON MOUNTAIN  MOSUNNY   46  18  32 VRB7      29.96F
MARINETTE      MOSUNNY   43  19  39 E15       29.96F
$$

WIZ017-030-035>037-045-251700-
CENTRAL WISCONSIN

CITY           SKY/WX    TMP DP  RH WIND       PRES   REMARKS
MEDFORD        NOT AVBL
WAUSAU         PTSUNNY   49  18  29 E16G26    29.90S
MOSINEE        MOSUNNY   48  18  29 E16G23    29.91F
MARSHFIELD     CLOUDY    47  22  37 E14       29.88F
WISC RAPIDS    CLOUDY    48  21  34 E17G24    29.90R
STEVENS POINT  NOT AVBL
WAUPACA        NOT AVBL
SHAWANO        NOT AVBL
CLINTONVILLE   SUNNY     48  18  29 E17       29.92S
$$

WIZ038-039-048-051-251700-
FOX VALLEY

CITY           SKY/WX    TMP DP  RH WIND       PRES   REMARKS
NWS GREEN BAY  PTSUNNY   47  23  38 NE18      29.93F
APPLETON       PTSUNNY   46  19  34 NE17G24   29.90F
OSHKOSH        PTSUNNY   47  28  47 NE15      29.88F
FOND DU LAC    CLOUDY    47  29  49 NE15G21   29.88S
$$

WIZ022-050-052-251700-
EAST CENTRAL WISCONSIN

CITY           SKY/WX    TMP DP  RH WIND       PRES   REMARKS
STURGEON BAY   CLOUDY    41  18  38 NE13      29.98R
MANITOWOC      NOT AVBL
SHEBOYGAN      CLOUDY    42  32  67 NE16      29.90S
$$

LMZ563-521-522-541>543-251700-
LAKESHORE

STATION/POSITION TIME  TEMP    WIND        PRES    VSBY  WAVE
                       AIR SEA DIR/SP/G                  HT/PER
                 (UTC) (F)     (DEG/KT/KT) (MB)    (MI)  (FT/S)
SHEBOYGAN LKSHOR 1500   38      50/ 13/ 15 1013.2F
KEWAUNEE LKSHORE 1500   38      40/ 13/ 16 1013.3R
NORTHPORT PIER   1500   36      60/  9/ 11 1015.6F
SISTER BAY LKSHO 1500   44     120/ 10/ 12   N/A
CHAMBERS ISLAND  1500   37      10/ 13/ 16 1015.2F
MENOMINEE LKSHOR 1500   36      20/ 17/ 18 1015.4F
$$


USA.gov is the U.S. government's official web portal to all federal, state and local government web resources and services.